Time,TemperatureF,DewpointF,PressureIn,WindDirection,WindDirectionDegrees,WindSpeedMPH,WindSpeedGustMPH,Humidity,HourlyPrecipIn,Conditions,Clouds,dailyrainin,SolarRadiationWatts/m^2,SoftwareType,DateUTC
2013-05-27 00:02:00,68.6,-99.9,19.99,West,262,0.0,0.0,255,0.00,,,0.00,0,Wunderground v.1.15,2013-05-27 04:02:00,
2013-05-27 00:07:00,68.4,-99.9,19.98,West,262,0.0,0.0,255,0.00,,,0.00,0,Wunderground v.1.15,2013-05-27 04:07:00,
2013-05-27 00:12:00,67.8,-99.9,19.99,West,262,0.0,0.0,255,0.00,,,0.00,0,Wunderground v.1.15,2013-05-27 04:12:00,
2013-05-27 00:17:00,67.4,-99.9,19.99,West,262,0.0,0.0,255,0.00,,,0.00,0,Wunderground v.1.15,2013-05-27 04:17:00,
2013-05-27 00:27:00,67.0,-99.9,19.98,West,262,0.0,0.0,255,0.00,,,0.00,0,Wunderground v.1.15,2013-05-27 04:27:00,
2013-05-27 00:37:00,66.8,-99.9,19.98,West,262,0.0,0.0,255,0.00,,,0.00,0,Wunderground v.1.15,2013-05-27 04:37:00,
2013-05-27 00:47:00,67.0,-99.9,19.99,West,262,0.0,0.0,255,0.00,,,0.00,0,Wunderground v.1.15,2013-05-27 04:47:00,
2013-05-27 00:52:00,66.8,-99.9,19.99,West,262,0.0,0.0,255,0.00,,,0.00,0,Wunderground v.1.15,2013-05-27 04:52:00,
2013-05-27 01:02:00,66.4,-99.9,19.98,West,262,0.0,0.0,255,0.00,,,0.00,0,Wunderground v.1.15,2013-05-27 05:02:00,
2013-05-27 01:12:00,66.3,-99.9,19.99,West,262,0.0,0.0,255,0.00,,,0.00,0,Wunderground v.1.15,2013-05-27 05:12:00,
2013-05-27 01:17:00,66.3,-99.9,19.98,West,262,0.0,0.0,255,0.00,,,0.00,0,Wunderground v.1.15,2013-05-27 05:17:00,
2013-05-27 01:27:00,65.8,-99.9,19.99,West,262,0.0,0.0,255,0.00,,,0.00,0,Wunderground v.1.15,2013-05-27 05:27:00,
2013-05-27 01:37:00,65.2,-99.9,19.98,West,262,0.0,0.0,255,0.00,,,0.00,0,Wunderground v.1.15,2013-05-27 05:37:00,
2013-05-27 01:47:00,64.9,-99.9,19.98,West,262,0.0,0.0,255,0.00,,,0.00,0,Wunderground v.1.15,2013-05-27 05:47:00,
2013-05-27 01:52:00,64.7,-99.9,19.99,West,262,0.0,0.0,255,0.00,,,0.00,0,Wunderground v.1.15,2013-05-27 05:52:00,
2013-05-27 02:01:00,64.6,-99.9,19.99,West,262,0.0,0.0,255,0.00,,,0.00,0,Wunderground v.1.15,2013-05-27 06:01:00,
2013-05-27 02:07:00,64.7,-99.9,19.99,West,262,0.0,0.0,255,0.00,,,0.00,0,Wunderground v.1.15,2013-05-27 06:07:00,
2013-05-27 02:16:00,64.5,-99.9,19.99,West,262,0.0,0.0,255,0.00,,,0.00,0,Wunderground v.1.15,2013-05-27 06:16:00,
2013-05-27 02:22:00,64.4,-99.9,19.99,West,262,0.0,0.0,255,0.00,,,0.00,0,Wunderground v.1.15,2013-05-27 06:22:00,
2013-05-27 02:31:00,64.1,-99.9,19.99,West,262,0.0,0.0,255,0.00,,,0.00,0,Wunderground v.1.15,2013-05-27 06:31:00,
2013-05-27 02:41:00,64.4,-99.9,19.98,West,262,0.0,0.0,255,0.00,,,0.00,0,Wunderground v.1.15,2013-05-27 06:41:00,
2013-05-27 02:51:00,64.1,-99.9,19.99,West,262,0.0,0.0,255,0.00,,,0.00,0,Wunderground v.1.15,2013-05-27 06:51:00,
2013-05-27 03:01:00,64.0,-99.9,19.98,West,262,0.0,0.0,255,0.00,,,0.00,0,Wunderground v.1.15,2013-05-27 07:01:00,
2013-05-27 03:11:00,63.7,-99.9,19.98,West,262,0.0,0.0,255,0.00,,,0.00,0,Wunderground v.1.15,2013-05-27 07:11:00,
2013-05-27 03:16:00,63.9,-99.9,19.99,West,262,0.0,0.0,255,0.00,,,0.00,0,Wunderground v.1.15,2013-05-27 07:16:00,
2013-05-27 03:26:00,63.8,-99.9,19.99,West,262,0.0,0.0,255,0.00,,,0.00,0,Wunderground v.1.15,2013-05-27 07:26:00,
2013-05-27 03:31:00,63.6,-99.9,19.99,West,262,0.0,0.0,255,0.00,,,0.00,0,Wunderground v.1.15,2013-05-27 07:31:00,
2013-05-27 03:41:00,63.6,-99.9,19.99,West,262,0.0,0.0,255,0.00,,,0.00,0,Wunderground v.1.15,2013-05-27 07:41:00,
2013-05-27 03:51:00,63.2,-99.9,19.99,West,262,0.0,0.0,255,0.00,,,0.00,0,Wunderground v.1.15,2013-05-27 07:51:00,
2013-05-27 04:01:00,63.2,-99.9,19.98,West,262,0.0,0.0,255,0.00,,,0.00,0,Wunderground v.1.15,2013-05-27 08:01:00,
2013-05-27 04:11:00,63.4,-99.9,19.98,West,262,0.0,0.0,255,0.00,,,0.00,0,Wunderground v.1.15,2013-05-27 08:11:00,
2013-05-27 04:21:00,63.2,-99.9,19.99,West,262,0.0,0.0,255,0.00,,,0.00,0,Wunderground v.1.15,2013-05-27 08:21:00,
2013-05-27 04:26:00,63.0,-99.9,19.99,West,262,0.0,0.0,255,0.00,,,0.00,0,Wunderground v.1.15,2013-05-27 08:26:00,
2013-05-27 04:36:00,63.2,-99.9,19.99,West,262,0.0,0.0,255,0.00,,,0.00,0,Wunderground v.1.15,2013-05-27 08:36:00,
2013-05-27 04:46:00,63.4,-99.9,19.99,West,262,0.0,0.0,255,0.00,,,0.00,0,Wunderground v.1.15,2013-05-27 08:46:00,
2013-05-27 05:01:00,63.4,-99.9,19.98,West,262,0.0,0.0,255,0.00,,,0.00,0,Wunderground v.1.15,2013-05-27 09:01:00,
2013-05-27 05:10:00,63.2,-99.9,19.99,West,262,0.0,0.0,255,0.00,,,0.00,0,Wunderground v.1.15,2013-05-27 09:10:00,
2013-05-27 05:20:00,63.5,-99.9,19.99,West,262,0.0,0.0,255,0.00,,,0.00,0,Wunderground v.1.15,2013-05-27 09:20:00,
2013-05-27 05:25:00,63.4,-99.9,19.98,West,262,0.0,0.0,255,0.00,,,0.00,0,Wunderground v.1.15,2013-05-27 09:25:00,
2013-05-27 05:35:00,63.4,-99.9,19.98,West,262,0.0,0.0,255,0.00,,,0.00,0,Wunderground v.1.15,2013-05-27 09:35:00,
2013-05-27 05:45:00,63.1,-99.9,19.99,West,262,0.0,0.0,255,0.00,,,0.00,0,Wunderground v.1.15,2013-05-27 09:45:00,
2013-05-27 06:00:00,62.4,-99.9,19.98,West,262,0.0,0.0,255,0.00,,,0.00,0,Wunderground v.1.15,2013-05-27 10:00:00,
2013-05-27 06:10:00,63.0,-99.9,19.99,West,262,0.0,0.0,255,0.00,,,0.00,0,Wunderground v.1.15,2013-05-27 10:10:00,
2013-05-27 06:20:00,63.6,-99.9,19.98,West,262,0.0,0.0,255,0.00,,,0.00,0,Wunderground v.1.15,2013-05-27 10:20:00,
2013-05-27 06:31:00,63.8,-99.9,19.98,WSW,256,0.0,0.0,255,0.00,,,0.00,0,Wunderground v.1.15,2013-05-27 10:31:00,
2013-05-27 06:36:00,63.7,-99.9,19.98,WSW,256,0.0,0.0,255,0.00,,,0.00,0,Wunderground v.1.15,2013-05-27 10:36:00,
2013-05-27 06:46:00,63.7,-99.9,19.98,WSW,256,0.0,0.0,255,0.00,,,0.00,0,Wunderground v.1.15,2013-05-27 10:46:00,
2013-05-27 07:01:00,65.8,-99.9,19.98,WSW,256,0.0,1.0,255,0.00,,,0.00,0,Wunderground v.1.15,2013-05-27 11:01:00,
2013-05-27 07:11:00,67.4,-99.9,19.99,WSW,256,0.0,1.0,255,0.00,,,0.00,0,Wunderground v.1.15,2013-05-27 11:11:00,
2013-05-27 07:21:00,68.4,-99.9,19.99,WSW,256,0.0,1.0,255,0.00,,,0.00,0,Wunderground v.1.15,2013-05-27 11:21:00,
2013-05-27 07:31:00,70.0,-99.9,19.99,WSW,256,0.0,1.0,255,0.00,,,0.00,0,Wunderground v.1.15,2013-05-27 11:31:00,
2013-05-27 07:41:00,71.4,-99.9,19.99,WSW,256,0.0,1.0,255,0.00,,,0.00,0,Wunderground v.1.15,2013-05-27 11:41:00,
2013-05-27 07:51:00,72.5,-99.9,19.99,WSW,256,0.0,1.0,255,0.00,,,0.00,0,Wunderground v.1.15,2013-05-27 11:51:00,
2013-05-27 08:00:00,73.1,-99.9,19.99,WSW,254,3.0,4.0,255,0.00,,,0.00,0,Wunderground v.1.15,2013-05-27 12:00:00,
2013-05-27 08:05:00,73.3,-99.9,19.98,WSW,246,3.0,4.0,255,0.00,,,0.00,0,Wunderground v.1.15,2013-05-27 12:05:00,
2013-05-27 08:15:00,73.9,-99.9,19.99,WSW,241,3.0,4.0,255,0.00,,,0.00,0,Wunderground v.1.15,2013-05-27 12:15:00,
2013-05-27 08:25:00,74.5,-99.9,19.98,SSW,205,2.0,4.0,255,0.00,,,0.00,0,Wunderground v.1.15,2013-05-27 12:25:00,
2013-05-27 08:35:00,75.4,-99.9,19.99,SSW,205,4.0,4.0,255,0.00,,,0.00,0,Wunderground v.1.15,2013-05-27 12:35:00,
2013-05-27 08:45:00,75.1,-99.9,19.98,SSW,203,0.0,5.0,255,0.00,,,0.00,0,Wunderground v.1.15,2013-05-27 12:45:00,
2013-05-27 08:50:00,76.3,-99.9,19.99,SSW,202,0.0,4.0,255,0.00,,,0.00,0,Wunderground v.1.15,2013-05-27 12:50:00,
2013-05-27 09:00:00,77.0,-99.9,19.99,SSW,202,2.0,8.0,255,0.00,,,0.00,0,Wunderground v.1.15,2013-05-27 13:00:00,
2013-05-27 09:10:00,76.8,-99.9,19.99,SSW,202,2.0,8.0,255,0.00,,,0.00,0,Wunderground v.1.15,2013-05-27 13:10:00,
2013-05-27 09:20:00,77.4,-99.9,19.99,SSW,203,0.0,8.0,255,0.00,,,0.00,0,Wunderground v.1.15,2013-05-27 13:20:00,
2013-05-27 09:25:00,78.1,-99.9,19.99,SSW,203,1.0,8.0,255,0.00,,,0.00,0,Wunderground v.1.15,2013-05-27 13:25:00,
2013-05-27 09:31:00,77.6,-99.9,19.98,SSW,203,0.0,8.0,255,0.00,,,0.00,0,Wunderground v.1.15,2013-05-27 13:31:00,
2013-05-27 09:41:00,78.1,-99.9,19.99,SSW,203,2.0,8.0,255,0.00,,,0.00,0,Wunderground v.1.15,2013-05-27 13:41:00,
2013-05-27 09:51:00,78.0,-99.9,19.99,West,265,0.0,8.0,255,0.00,,,0.00,0,Wunderground v.1.15,2013-05-27 13:51:00,
2013-05-27 10:01:00,79.3,-99.9,19.98,West,273,1.0,7.0,255,0.00,,,0.00,0,Wunderground v.1.15,2013-05-27 14:01:00,
2013-05-27 10:06:00,77.2,-99.9,19.99,SW,215,6.0,7.0,255,0.00,,,0.00,0,Wunderground v.1.15,2013-05-27 14:06:00,
2013-05-27 10:16:00,78.0,-99.9,19.99,SSW,205,7.0,7.0,255,0.00,,,0.00,0,Wunderground v.1.15,2013-05-27 14:16:00,
2013-05-27 10:26:00,78.0,-99.9,19.99,SSE,153,5.0,7.0,255,0.00,,,0.00,0,Wunderground v.1.15,2013-05-27 14:26:00,
2013-05-27 10:36:00,78.8,-99.9,19.99,SSW,199,6.0,7.0,255,0.00,,,0.00,0,Wunderground v.1.15,2013-05-27 14:36:00,
2013-05-27 10:45:00,78.5,-99.9,19.99,SSE,155,7.0,7.0,255,0.00,,,0.00,0,Wunderground v.1.15,2013-05-27 14:45:00,
2013-05-27 10:51:00,77.8,-99.9,19.99,SSW,204,10.0,10.0,255,0.00,,,0.00,0,Wunderground v.1.15,2013-05-27 14:51:00,
2013-05-27 11:00:00,78.8,-99.9,19.99,SSW,201,1.0,11.0,255,0.00,,,0.00,0,Wunderground v.1.15,2013-05-27 15:00:00,
2013-05-27 11:05:00,78.7,-99.9,19.98,SSW,198,6.0,11.0,255,0.00,,,0.00,0,Wunderground v.1.15,2013-05-27 15:05:00,
2013-05-27 11:15:00,77.0,-99.9,19.98,SE,143,8.0,11.0,255,0.00,,,0.00,0,Wunderground v.1.15,2013-05-27 15:15:00,
2013-05-27 11:25:00,76.7,-99.9,19.99,SSE,164,3.0,11.0,255,0.00,,,0.00,0,Wunderground v.1.15,2013-05-27 15:25:00,
2013-05-27 11:35:00,78.4,-99.9,19.99,SSW,199,6.0,11.0,255,0.00,,,0.00,0,Wunderground v.1.15,2013-05-27 15:35:00,
2013-05-27 11:45:00,78.5,-99.9,19.98,SSW,206,4.0,11.0,255,0.00,,,0.00,0,Wunderground v.1.15,2013-05-27 15:45:00,
2013-05-27 11:50:00,79.5,-99.9,19.99,SSE,151,7.0,11.0,255,0.00,,,0.00,0,Wunderground v.1.15,2013-05-27 15:50:00,
2013-05-27 12:00:00,78.0,-99.9,19.99,South,179,5.0,13.0,255,0.00,,,0.00,0,Wunderground v.1.15,2013-05-27 16:00:00,
2013-05-27 12:05:00,78.3,-99.9,19.98,SSE,161,10.0,13.0,255,0.00,,,0.00,0,Wunderground v.1.15,2013-05-27 16:05:00,
2013-05-27 12:15:00,78.6,-99.9,19.99,South,177,6.0,13.0,255,0.00,,,0.00,0,Wunderground v.1.15,2013-05-27 16:15:00,
2013-05-27 12:25:00,78.1,-99.9,19.99,SSE,150,4.0,13.0,255,0.00,,,0.00,0,Wunderground v.1.15,2013-05-27 16:25:00,
2013-05-27 12:31:00,79.3,-99.9,19.99,SSW,204,4.0,13.0,255,0.00,,,0.00,0,Wunderground v.1.15,2013-05-27 16:31:00,
2013-05-27 12:36:00,77.9,-99.9,19.98,SSE,166,8.0,13.0,255,0.00,,,0.00,0,Wunderground v.1.15,2013-05-27 16:36:00,
2013-05-27 12:46:00,77.7,-99.9,19.99,ESE,118,4.0,13.0,255,0.00,,,0.00,0,Wunderground v.1.15,2013-05-27 16:46:00,
2013-05-27 13:01:00,78.8,-99.9,19.98,SSE,156,4.0,12.0,255,0.00,,,0.00,0,Wunderground v.1.15,2013-05-27 17:01:00,
2013-05-27 13:11:00,78.3,-99.9,19.99,SSE,166,8.0,12.0,255,0.00,,,0.00,0,Wunderground v.1.15,2013-05-27 17:11:00,
2013-05-27 13:21:00,79.1,-99.9,19.98,South,191,4.0,12.0,255,0.00,,,0.00,0,Wunderground v.1.15,2013-05-27 17:21:00,
2013-05-27 13:31:00,78.3,-99.9,19.98,South,182,3.0,12.0,255,0.00,,,0.00,0,Wunderground v.1.15,2013-05-27 17:31:00,
2013-05-27 13:41:00,78.6,-99.9,19.98,South,169,12.0,12.0,255,0.00,,,0.00,0,Wunderground v.1.15,2013-05-27 17:41:00,
2013-05-27 13:50:00,78.4,-99.9,19.99,SSE,156,7.0,12.0,255,0.00,,,0.00,0,Wunderground v.1.15,2013-05-27 17:50:00,
2013-05-27 14:00:00,78.3,-99.9,19.98,South,188,7.0,17.0,255,0.00,,,0.00,0,Wunderground v.1.15,2013-05-27 18:00:00,
2013-05-27 14:10:00,78.6,-99.9,19.98,SSE,148,7.0,17.0,255,0.00,,,0.00,0,Wunderground v.1.15,2013-05-27 18:10:00,
2013-05-27 14:20:00,78.5,-99.9,19.99,SSE,157,9.0,17.0,255,0.00,,,0.00,0,Wunderground v.1.15,2013-05-27 18:20:00,
2013-05-27 14:30:00,79.5,-99.9,19.99,WSW,253,5.0,17.0,255,0.00,,,0.00,0,Wunderground v.1.15,2013-05-27 18:30:00,
2013-05-27 14:40:00,78.0,-99.9,19.99,SSW,208,8.0,17.0,255,0.00,,,0.00,0,Wunderground v.1.15,2013-05-27 18:40:00,
2013-05-27 14:50:00,79.4,-99.9,19.98,SSW,199,6.0,17.0,255,0.00,,,0.00,0,Wunderground v.1.15,2013-05-27 18:50:00,
2013-05-27 15:00:00,78.4,-99.9,19.99,South,191,5.0,16.0,255,0.00,,,0.00,0,Wunderground v.1.15,2013-05-27 19:00:00,
2013-05-27 15:05:00,79.6,-99.9,19.98,WSW,249,3.0,16.0,255,0.00,,,0.00,0,Wunderground v.1.15,2013-05-27 19:05:00,
2013-05-27 15:15:00,78.5,-99.9,19.99,SSE,168,3.0,16.0,255,0.00,,,0.00,0,Wunderground v.1.15,2013-05-27 19:15:00,
2013-05-27 15:25:00,78.7,-99.9,19.98,South,187,8.0,16.0,255,0.00,,,0.00,0,Wunderground v.1.15,2013-05-27 19:25:00,
2013-05-27 15:31:00,79.2,-99.9,19.98,WSW,251,7.0,16.0,255,0.00,,,0.00,0,Wunderground v.1.15,2013-05-27 19:31:00,
2013-05-27 15:41:00,78.7,-99.9,19.98,South,179,9.0,16.0,255,0.00,,,0.00,0,Wunderground v.1.15,2013-05-27 19:41:00,
2013-05-27 15:51:00,79.0,-99.9,19.98,SSW,211,4.0,16.0,255,0.00,,,0.00,0,Wunderground v.1.15,2013-05-27 19:51:00,
2013-05-27 16:01:00,77.8,-99.9,19.99,SSE,158,10.0,16.0,255,0.00,,,0.00,0,Wunderground v.1.15,2013-05-27 20:01:00,
2013-05-27 16:06:00,77.7,-99.9,19.98,SSW,200,7.0,16.0,255,0.00,,,0.00,0,Wunderground v.1.15,2013-05-27 20:06:00,
2013-05-27 16:16:00,77.8,-99.9,19.99,WSW,237,4.0,16.0,255,0.00,,,0.00,0,Wunderground v.1.15,2013-05-27 20:16:00,
2013-05-27 16:25:00,77.7,-99.9,19.98,SSW,211,5.0,16.0,255,0.00,,,0.00,0,Wunderground v.1.15,2013-05-27 20:25:00,
2013-05-27 16:31:00,77.9,-99.9,19.98,SE,144,10.0,16.0,255,0.00,,,0.00,0,Wunderground v.1.15,2013-05-27 20:31:00,
2013-05-27 16:40:00,77.8,-99.9,19.99,South,175,8.0,16.0,255,0.00,,,0.00,0,Wunderground v.1.15,2013-05-27 20:40:00,
2013-05-27 16:51:00,77.6,-99.9,19.98,SW,216,6.0,16.0,255,0.00,,,0.00,0,Wunderground v.1.15,2013-05-27 20:51:00,
2013-05-27 17:00:00,77.5,-99.9,19.99,SSW,210,10.0,16.0,255,0.00,,,0.00,0,Wunderground v.1.15,2013-05-27 21:00:00,
2013-05-27 17:10:00,76.9,-99.9,19.99,SSW,194,7.0,16.0,255,0.00,,,0.00,0,Wunderground v.1.15,2013-05-27 21:10:00,
2013-05-27 17:20:00,77.9,-99.9,19.99,WSW,243,3.0,16.0,255,0.00,,,0.00,0,Wunderground v.1.15,2013-05-27 21:20:00,
2013-05-27 17:30:00,77.7,-99.9,19.99,SSW,206,6.0,16.0,255,0.00,,,0.00,0,Wunderground v.1.15,2013-05-27 21:30:00,
2013-05-27 17:40:00,77.7,-99.9,19.98,SSW,197,5.0,16.0,255,0.00,,,0.00,0,Wunderground v.1.15,2013-05-27 21:40:00,
2013-05-27 17:45:00,77.9,-99.9,19.99,SSW,192,6.0,16.0,255,0.00,,,0.00,0,Wunderground v.1.15,2013-05-27 21:45:00,
2013-05-27 18:00:00,77.3,-99.9,19.99,South,171,4.0,16.0,255,0.00,,,0.00,0,Wunderground v.1.15,2013-05-27 22:00:00,
2013-05-27 18:10:00,77.1,-99.9,19.99,SSW,201,5.0,16.0,255,0.00,,,0.00,0,Wunderground v.1.15,2013-05-27 22:10:00,
2013-05-27 18:20:00,76.9,-99.9,19.99,SSW,208,10.0,16.0,255,0.00,,,0.00,0,Wunderground v.1.15,2013-05-27 22:20:00,
2013-05-27 18:26:00,76.5,-99.9,19.98,WSW,255,7.0,16.0,255,0.00,,,0.00,0,Wunderground v.1.15,2013-05-27 22:26:00,
2013-05-27 18:36:00,76.8,-99.9,19.99,SSE,166,3.0,16.0,255,0.00,,,0.00,0,Wunderground v.1.15,2013-05-27 22:36:00,
2013-05-27 18:46:00,76.7,-99.9,19.99,SSW,195,2.0,16.0,255,0.00,,,0.00,0,Wunderground v.1.15,2013-05-27 22:46:00,
2013-05-27 19:01:00,76.1,-99.9,19.98,South,176,11.0,15.0,255,0.00,,,0.00,0,Wunderground v.1.15,2013-05-27 23:01:00,
2013-05-27 19:11:00,76.1,-99.9,19.98,SSW,206,3.0,15.0,255,0.00,,,0.00,0,Wunderground v.1.15,2013-05-27 23:11:00,
2013-05-27 19:21:00,76.1,-99.9,19.98,South,184,5.0,15.0,255,0.00,,,0.00,0,Wunderground v.1.15,2013-05-27 23:21:00,
2013-05-27 19:31:00,76.0,-99.9,19.98,SSE,157,8.0,15.0,255,0.00,,,0.00,0,Wunderground v.1.15,2013-05-27 23:31:00,
2013-05-27 19:41:00,75.8,-99.9,19.98,SSW,196,3.0,15.0,255,0.00,,,0.00,0,Wunderground v.1.15,2013-05-27 23:41:00,
2013-05-27 19:50:00,75.8,-99.9,19.99,SSW,198,4.0,15.0,255,0.00,,,0.00,0,Wunderground v.1.15,2013-05-27 23:50:00,
2013-05-27 20:00:00,75.4,-99.9,19.98,SSW,204,2.0,11.0,255,0.00,,,0.00,0,Wunderground v.1.15,2013-05-28 00:00:00,
2013-05-27 20:10:00,75.0,-99.9,19.99,SSW,197,4.0,11.0,255,0.00,,,0.00,0,Wunderground v.1.15,2013-05-28 00:10:00,
2013-05-27 20:15:00,74.9,-99.9,19.99,SSW,201,2.0,11.0,255,0.00,,,0.00,0,Wunderground v.1.15,2013-05-28 00:15:00,
2013-05-27 20:25:00,74.7,-99.9,19.99,SSW,200,1.0,11.0,255,0.00,,,0.00,0,Wunderground v.1.15,2013-05-28 00:25:00,
2013-05-27 20:35:00,74.5,-99.9,19.99,SSW,200,4.0,11.0,255,0.00,,,0.00,0,Wunderground v.1.15,2013-05-28 00:35:00,
2013-05-27 20:40:00,74.4,-99.9,19.99,SSW,200,3.0,11.0,255,0.00,,,0.00,0,Wunderground v.1.15,2013-05-28 00:40:00,
2013-05-27 20:50:00,74.2,-99.9,19.99,SSW,200,2.0,11.0,255,0.00,,,0.00,0,Wunderground v.1.15,2013-05-28 00:50:00,
2013-05-27 21:00:00,73.9,-99.9,19.99,SSW,200,0.0,7.0,255,0.00,,,0.00,0,Wunderground v.1.15,2013-05-28 01:00:00,
2013-05-27 21:10:00,73.8,-99.9,19.99,SSW,199,4.0,7.0,255,0.00,,,0.00,0,Wunderground v.1.15,2013-05-28 01:10:00,
2013-05-27 21:15:00,73.8,-99.9,19.99,SSW,200,4.0,7.0,255,0.00,,,0.00,0,Wunderground v.1.15,2013-05-28 01:15:00,
2013-05-27 21:26:00,73.8,-99.9,19.98,SSW,200,3.0,7.0,255,0.00,,,0.00,0,Wunderground v.1.15,2013-05-28 01:26:00,
2013-05-27 21:36:00,73.7,-99.9,19.99,SSW,200,3.0,7.0,255,0.00,,,0.00,0,Wunderground v.1.15,2013-05-28 01:36:00,
2013-05-27 21:46:00,73.7,-99.9,19.99,SSW,200,2.0,7.0,255,0.00,,,0.00,0,Wunderground v.1.15,2013-05-28 01:46:00,
2013-05-27 22:01:00,73.7,-99.9,19.98,SSW,200,3.0,6.0,255,0.00,,,0.00,0,Wunderground v.1.15,2013-05-28 02:01:00,
2013-05-27 22:11:00,73.6,-99.9,19.98,SSW,200,3.0,6.0,255,0.00,,,0.00,0,Wunderground v.1.15,2013-05-28 02:11:00,
2013-05-27 22:16:00,73.7,-99.9,19.99,SSW,200,3.0,6.0,255,0.00,,,0.00,0,Wunderground v.1.15,2013-05-28 02:16:00,
2013-05-27 22:26:00,73.5,-99.9,19.99,SSW,200,1.0,6.0,255,0.00,,,0.00,0,Wunderground v.1.15,2013-05-28 02:26:00,
2013-05-27 22:35:00,73.5,-99.9,19.98,SSW,200,2.0,6.0,255,0.00,,,0.00,0,Wunderground v.1.15,2013-05-28 02:35:00,
2013-05-27 22:41:00,73.4,-99.9,19.98,SSW,200,2.0,6.0,255,0.00,,,0.00,0,Wunderground v.1.15,2013-05-28 02:41:00,
2013-05-27 22:50:00,73.4,-99.9,19.99,SSW,200,2.0,6.0,255,0.00,,,0.00,0,Wunderground v.1.15,2013-05-28 02:50:00,
2013-05-27 23:00:00,73.4,-99.9,19.99,SSW,200,0.0,6.0,255,0.00,,,0.00,0,Wunderground v.1.15,2013-05-28 03:00:00,
2013-05-27 23:10:00,73.4,-99.9,19.99,SSW,200,0.0,6.0,255,0.00,,,0.00,0,Wunderground v.1.15,2013-05-28 03:10:00,
2013-05-27 23:15:00,73.3,-99.9,19.98,SSW,200,3.0,6.0,255,0.00,,,0.00,0,Wunderground v.1.15,2013-05-28 03:15:00,
2013-05-27 23:25:00,73.3,-99.9,19.98,SSW,199,5.0,6.0,255,0.00,,,0.00,0,Wunderground v.1.15,2013-05-28 03:25:00,
2013-05-27 23:35:00,73.2,-99.9,19.99,SSW,199,1.0,6.0,255,0.00,,,0.00,0,Wunderground v.1.15,2013-05-28 03:35:00,
2013-05-27 23:40:00,73.2,-99.9,19.98,SSW,199,0.0,6.0,255,0.00,,,0.00,0,Wunderground v.1.15,2013-05-28 03:40:00,
2013-05-27 23:50:00,73.2,-99.9,19.99,SSW,199,2.0,6.0,255,0.00,,,0.00,0,Wunderground v.1.15,2013-05-28 03:50:00,